Regional Weather Roundup
Issued by NWS

Home | Current Version | Previous Version | Graphics & Text | Print | Product List | Glossary Off
Versions: 1 2 3 4 5 6 7 8 9 10 11 12 13 14 15 16 17 18 19 20 21 22 23 24 25 26 27 28 29 30 31 32 33 34 35 36 37 38 39 40 41 42 43 44 45 46 47 48 49 50

000
ASUS43 KMKX 251400
RWRWI

WISCONSIN REGIONAL WEATHER ROUNDUP
NATIONAL WEATHER SERVICE MILWAUKEE/SULLIVAN WI
900 AM CDT SAT OCT 25 2014

NOTE: "FAIR" INDICATES FEW OR NO CLOUDS BELOW 12,000 FEET WITH NO
SIGNIFICANT WEATHER AND/OR OBSTRUCTIONS TO VISIBILITY.

WIZ001-002-006>008-014>016-023>028-251500-
NORTHWEST WISCONSIN

CITY           SKY/WX    TMP DP  RH WIND       PRES   REMARKS
SUPERIOR ARPT  SUNNY     49  34  55 W10G16    29.93R
ASHLAND        SUNNY     51  35  54 W13G18    29.88R
HAYWARD        SUNNY     50  33  52 W10G17    29.93R
SIREN          SUNNY     47  34  59 W9        29.97R
CUMBERLAND     SUNNY     46  32  57 W12G17    29.96R
RICE LAKE      SUNNY     46  35  66 W5        29.97R
CHETEK         SUNNY     48  36  62 W9        29.95R
LADYSMITH      SUNNY     51  35  55 NW10      29.93R
EAU CLAIRE     SUNNY     51  39  63 W8        29.96R
MENOMONIE      SUNNY     50  36  59 W9        29.98R
NEW RICHMOND   SUNNY     49  35  59 NW9       29.99R
OSCEOLA        SUNNY     50  35  57 W9        30.03R
$$

WIZ003>005-009-010-017-018-251500-
NORTH CENTRAL WISCONSIN

CITY           SKY/WX    TMP DP  RH WIND       PRES   REMARKS
MANITOWISH WTR SUNNY     46  36  68 W8        29.84R
ARBOR VITAE    SUNNY     49  38  65 W12       29.84R
WOODRUFF       SUNNY     49  38  65 W12       29.84R
RHINELANDER    SUNNY     49  35  58 W17G25    29.85R
EAGLE RIVER    SUNNY     48  33  56 W14G23    29.82R
LAND O LAKES   SUNNY     49  34  55 W10G20    29.81R
PHILLIPS       SUNNY     47  35  63 W7        29.87S
TOMAHAWK       SUNNY     48  36  61 W12G18    29.86S
MEDFORD        SUNNY     47  38  71 W9        29.90R
MERRILL        SUNNY     50  37  60 NW18G24   29.86S
$$

WIZ029-030-035-036-043>047-251500-
CENTRAL WISCONSIN

CITY           SKY/WX    TMP DP  RH WIND       PRES   REMARKS
WAUSAU         SUNNY     50  40  68 NW14      29.87R
MOSINEE        NOT AVBL
MARSHFIELD     SUNNY     51  39  63 NW15      29.91R
STEVENS POINT  SUNNY     49  40  70 W9        29.89S
WAUPACA        SUNNY     54  46  73 W7        29.88R
WAUTOMA        NOT AVBL
WISC RAPIDS    SUNNY     52  41  66 W12       29.93R
CAMP DOUGLAS   NOT AVBL
$$

WIZ011>013-019>022-031-037>040-048>050-251500-
NORTHEAST WISCONSIN

CITY           SKY/WX    TMP DP  RH WIND       PRES   REMARKS
ANTIGO         SUNNY     48  38  68 NW14      29.85R
SHAWANO        SUNNY     54  45  73 W7        29.84S
OCONTO         SUNNY     53  48  83 W10       29.81S
STURGEON BAY   SUNNY     54  46  76 W15       29.80S
GREEN BAY      SUNNY     55  47  74 W10       29.84S
MANITOWOC      NOT AVBL
APPLETON       NOT AVBL
CLINTONVILLE   SUNNY     52  45  76 W8        29.85R
OSHKOSH        SUNNY     54  48  80 W8        29.88R
$$

WIZ032>034-041-042-053>061-251500-
SOUTHWEST WISCONSIN

CITY           SKY/WX    TMP DP  RH WIND       PRES   REMARKS
LA CROSSE      SUNNY     51  50  96 CALM      29.99R
SPARTA         SUNNY     52  40  65 W7        29.97R
VIROQUA        SUNNY     51  47  86 W6        29.98R
BOSCOBEL       SUNNY     53  50  89 CALM      30.00R
PRAIRIE DU CHI SUNNY     48  47  94 CALM      30.00R FOG
PLATTEVILLE    SUNNY     54  50  87 W9        30.00R
$$

WIZ056-057-062-063-064-067-068-251500-
SOUTH CENTRAL WISCONSIN

CITY           SKY/WX    TMP DP  RH WIND       PRES   REMARKS
REEDSBURG      SUNNY     52  47  83 CALM      29.94S
BARABOO/DELLS  SUNNY     54  45  71 W6        29.94R
LONE ROCK      NOT AVBL
MINERAL POINT  SUNNY     54  50  87 W6        29.98R
MADISON        MOSUNNY   57  50  77 W6        29.95R
MIDDLETON      SUNNY     57  53  86 W7        29.95R
WATERTOWN      SUNNY     54  50  88 W7        29.91R
MONROE         SUNNY     55  52  88 W10       29.95S
JANESVILLE     SUNNY     57  54  88 W9        29.94R
$$

WIZ051-052-058>065-066-070>072-251500-
SOUTHEAST WISCONSIN

CITY           SKY/WX    TMP DP  RH WIND       PRES   REMARKS
MILWAUKEE      MOSUNNY   58  49  72 NW10      29.90S
WAUKESHA       SUNNY     52  50  93 W9        29.92R FOG
MILWAUKEE/TIMM NOT AVBL
RACINE         SUNNY     58  51  78 W9        29.91R
BURLINGTON     SUNNY     55  51  85 W7        29.92R
KENOSHA        SUNNY     58  53  84 W10       29.91R
FOND DU LAC    SUNNY     55  47  74 W10       29.90R
SHEBOYGAN      SUNNY     57  48  72 W10       29.87R
WEST BEND      SUNNY     55  46  71 W9        29.89R
JUNEAU         SUNNY     52  48  86 W3        29.92R
$$

LSZ147-162-251500-
LAKE SUPERIOR

STATION/POSITION TIME  TEMP    WIND        PRES    WAVE
                       AIR SEA DIR/SP/G            HT/PER
                 (UTC) (F)     (DEG/KT/KT) (MB)    (FT/S)
W MID LAKE BUOY  1250   50 46  270/ 19/ 23 1006.9R   4/ 5
DEVILS ISLAND    1300   51     280/ 26/ 29 1010.0R
PORT WING        1300   51     260/ 13/ 18 1011.9
SAXON HARBOR     1300   52     230/  5/ 12 1010.8R
$$

LMZ867-665-643>646-251500-
LAKE MICHIGAN

STATION/POSITION TIME  TEMP    WIND        PRES    WAVE
                       AIR SEA DIR/SP/G            HT/PER
                 (UTC) (F)     (DEG/KT/KT) (MB)    (FT/S)
CHAMBERS ISLAND  1300   54     210/  8/ 12 1008.1S
N MID LAKE BUOY  1250   54 51  260/ 17/ 19 1006.6R   3/ 5
NORTHPORT PIER   1300   55     270/  5/ 12 1007.8R
SISTER BAY       1213          290/ 12/ 13   N/A
ALGOMA LAKESHORE 1256          270/  8/ 12   N/A
KEWAUNEE LAKESHO 1300   54     280/  5/ 10 1008.9R
SHEBOYGAN LAKESH 1300   56 51  270/ 11/ 13 1011.2R
PORT WASHINGTON  1340   59     280/  5/  9 1012.5R
ATWATER BUOY     1300   56     260/ 10/ 14 1012.9R
MILWAUKEE LAKESH 1300   57     290/  8/ 11   N/A
S MID LAKE BUOY  1250   55 54  250/ 12/ 16 1011.5R   2/ 3
KENOSHA   LAKESH 1300   57     280/ 12/ 16 1012.2R
$$

TC  - TEMPERATURE IN CELSIUS
VSB - VISIBILITY IN STATUTE MILES
WCI - WIND CHILL INDEX
HX  - HEAT INDEX




USA.gov is the U.S. government's official web portal to all federal, state and local government web resources and services.